Regional Weather Roundup
Issued by NWS Midland/Odessa, TX

Home | Current Version | Previous Version | Text Only | Print | Product List | Glossary On
Versions: 1 2 3 4 5 6 7 8 9 10 11 12 13 14 15 16 17 18 19 20 21 22 23 24 25 26 27 28 29 30 31 32 33 34 35 36 37 38 39 40 41 42 43 44 45 46 47 48 49 50
000
ASUS44 KMAF 250610
RWRMAF
MIDLAND AREA WEATHER ROUNDUP
NATIONAL WEATHER SERVICE MIDLAND TX
100 AM CDT SUN JUN 25 2017

...IN SOUTHWEST TEXAS AND SOUTHEAST NEW MEXICO...

CITY           SKY/WX    TMP DP  RH WIND       PRES   REMARKS
ALPINE         CLEAR     72  61  69 E3        30.30R
ANDREWS          N/A     72  64  77 E16G30    30.23R
ARTESIA        CLEAR     79  59  50 SE12      30.19R
BIG SPRING     PTCLDY    72  65  80 E16G22    30.25R
CARLSBAD       PTCLDY    79  60  52 E8        30.17R
DRYDEN           N/A     78  66  66 SE15G21   30.15R
FORT STOCKTON  CLEAR     78  65  63 SE10      30.16R
GUAD PASS      CLOUDY    72  57  59 NE21      30.32R
HOBBS          CLOUDY    73  63  68 E15G25    30.24S
MARFA          CLEAR     66  58  75 N5        30.29R
MIDLAND AIRPK  PTCLDY    74  66  74 E12G20    30.22R
MIDLAND INTL   PTCLDY    76  64  66 E18       30.21R
ODESSA         PTCLDY    76  65  68 E17       30.22R
PECOS          CLEAR     79  63  57 E9        30.15R
PRESIDIO       FAIR      83  64  51 NE14G20   30.12R
SEMINOLE       CLEAR     71  63  77 E15G22    30.26R
SNYDER         PTCLDY    71  65  81 E14G21    30.25R
WINK           CLOUDY    81  63  54 MISG      30.15R
$$
...OTHER STATIONS IN TEXAS...

CITY           SKY/WX    TMP DP  RH WIND       PRES   REMARKS
ABILENE        MOCLDY    70  67  90 SE6       30.22R
AMARILLO       PTCLDY    65  62  90 SE9       30.30S
AUSTIN         PTCLDY    77  70  79 NE3       30.13F
BROWNSVILLE    PTCLDY    82  79  90 NE3       30.03R
CORPUS CHRISTI MOCLDY    80  76  87 CALM      30.06S
DALLAS FTW     PTCLDY    74  64  71 E6        30.17R
DEL RIO        CLEAR     77  68  73 SE8       30.12R
EL PASO        CLOUDY    75  60  59 SW14      30.20F
HOUSTON INT    MOCLDY    78  74  87 N3        30.10S
LUBBOCK        CLOUDY    68  61  78 E14       30.28R
SAN ANGELO     CLOUDY    75  65  70 E16       30.19S
SAN ANTONIO    PTCLDY    75  68  78 NE6       30.14F
WACO           PTCLDY    72  71  97 N6        30.15S
WICHITA FALLS  NOT AVBL
$$
...OTHER LOCATIONS IN NEW MEXICO...

CITY           SKY/WX    TMP DP  RH WIND       PRES   REMARKS
ALAMOGORDO     CLOUDY    72  55  56 S7        30.19R
ALBUQUERQUE    CLOUDY    71  46  40 E8        30.25S
CANNON AFB     CLOUDY    66  66 100 E20G25    30.32R
CLOVIS         CLOUDY    64  61  88 E17G23    30.32R
HOLLOMAN AFB   CLOUDY    74  58  56 S14       30.18R
ROSWELL        CLEAR     75  57  53 SE5       30.19R
RUIDOSO        CLOUDY    59  50  72 S7        30.41R
SANTA FE       CLEAR     67  55  65 SE21G29   30.34R
TRUTH OR CONSE CLOUDY    70  56  61 CALM      30.20R
TUCUMCARI      TSTM      66  62  87 SE21      30.24F
$$




USA.gov is the U.S. government's official web portal to all federal, state and local government web resources and services.